PDT,Max TemperatureF,Mean TemperatureF,Min TemperatureF,Max Dew PointF,MeanDew PointF,Min DewpointF,Max Humidity, Mean Humidity, Min Humidity, Max Sea Level PressureIn, Mean Sea Level PressureIn, Min Sea Level PressureIn, Max VisibilityMiles, Mean VisibilityMiles, Min VisibilityMiles, Max Wind SpeedMPH, Mean Wind SpeedMPH, Max Gust SpeedMPH,PrecipitationIn, CloudCover, Events, WindDirDegrees
2013-8-1,60,56,53,59,55,54,100,98,82,30.18,30.15,30.12,10,4,0,12,6,,0.04,8,Fog-Rain,204
2013-8-2,62,56,50,57,55,50,100,93,77,30.19,30.17,30.15,10,6,0,12,5,24,0.01,6,Fog,266
2013-8-3,64,56,48,59,54,48,100,91,73,30.15,30.11,30.06,10,8,0,21,6,29,0.00,2,Fog-Rain,356
2013-8-4,59,55,51,54,53,52,100,95,82,30.08,30.06,30.03,10,3,0,20,8,24,0.00,8,Fog,344
2013-8-5,59,54,50,54,52,50,100,93,77,30.09,30.05,30.02,10,5,0,21,9,26,0.00,7,Fog,346
2013-8-6,59,54,48,52,50,46,100,94,72,30.05,30.03,30.00,10,4,0,22,6,26,0.00,6,Fog-Rain,333
2013-8-7,53,52,50,54,52,50,100,99,94,30.14,30.09,30.05,10,3,0,8,3,,0.00,8,Fog,257
2013-8-8,60,56,51,59,54,52,100,97,88,30.12,30.06,30.01,10,3,0,20,5,28,0.01,8,Fog-Rain,327
2013-8-9,62,56,51,55,53,52,100,96,77,30.02,29.99,29.95,10,4,0,17,3,23,0.00,5,Fog-Rain,332
2013-8-10,60,56,51,57,55,52,100,98,82,30.11,30.07,30.00,10,3,0,7,2,,0.01,8,Fog-Rain,225
2013-8-11,62,58,53,57,55,54,100,94,77,30.12,30.11,30.08,10,5,0,9,2,,0.00,7,Fog,292
2013-8-12,64,57,50,57,54,48,100,91,73,30.14,30.11,30.08,10,6,0,10,2,,0.00,5,Fog,303
2013-8-13,66,56,46,55,51,46,100,87,64,30.13,30.08,30.01,10,8,1,18,4,17,0.00,0,,9
2013-8-14,71,61,51,63,56,50,100,87,53,30.03,30.01,29.98,10,7,1,18,6,24,0.14,4,Rain,190
2013-8-15,64,60,55,63,59,55,100,98,94,30.04,30.00,29.97,10,3,0,10,4,,0.11,8,Fog-Rain,221
2013-8-16,64,58,53,61,57,54,100,94,77,30.11,30.06,30.01,10,6,0,7,1,,0.01,5,Fog,248
2013-8-17,64,58,51,61,58,52,100,96,88,30.16,30.13,30.09,10,7,0,8,2,,0.01,7,Fog-Rain,278
2013-8-18,69,60,51,61,58,52,100,92,68,30.18,30.15,30.11,10,6,0,15,4,21,0.00,3,Fog,355
2013-8-19,68,60,51,61,57,52,100,90,73,30.19,30.14,30.11,10,7,0,17,5,25,0.00,0,Fog,347
2013-8-20,64,55,46,55,52,46,100,84,68,30.16,30.11,30.03,10,7,3,21,8,29,0.00,0,,2
2013-8-21,64,55,46,55,51,46,100,86,64,30.04,29.98,29.93,10,7,0,20,5,24,0.00,0,Fog,352
2013-8-22,59,52,46,55,52,45,100,95,88,30.00,29.96,29.93,10,5,0,13,3,16,0.00,6,Fog,213
2013-8-23,64,58,53,59,57,54,100,94,77,30.01,29.98,29.96,10,7,0,14,5,16,0.00,7,Fog,206
2013-8-24,62,58,53,59,56,54,100,93,82,29.96,29.95,29.93,10,6,0,10,2,,0.00,6,Fog,335
2013-8-25,60,56,53,59,54,52,100,95,82,29.98,29.96,29.94,10,4,0,10,2,,0.00,8,Fog-Rain,204
2013-8-26,68,59,50,61,54,50,100,90,56,29.99,29.97,29.94,10,6,0,25,8,37,0.56,6,Fog-Rain,171
2013-8-27,68,64,60,64,60,59,100,94,78,29.98,29.92,29.87,10,7,2,14,6,20,0.25,7,Rain,210
2013-8-28,68,64,60,63,61,59,100,92,73,29.95,29.91,29.87,10,9,2,14,4,20,0.00,7,Rain,186
2013-8-29,66,63,60,63,61,59,100,98,88,30.12,29.99,29.87,10,6,0,28,9,36,0.46,8,Fog-Rain,175
2013-8-30,68,60,51,64,59,52,100,92,73,30.19,30.13,30.08,10,6,0,16,8,20,0.01,4,Fog-Rain,310
2013-8-31,62,56,50,59,55,50,100,95,77,30.07,29.99,29.95,10,3,0,8,2,,0.00,5,Fog,240